Bennettsville, SC

10:43 PM EDT on April 22, 2018 (GMT -0400)
Marlboro County-Avent

Weather History for KBBP - November, 2012

Change the Weather History Date:

Thursday, November 1, 2012

  Actual Average (KFLO) Record (KFLO)
Temperature  
Mean Temperature 48 °F -  
Max Temperature 64 °F 73 °F 87 °F (1974)
Min Temperature 32 °F 50 °F 32 °F (1954)
Degree Days  
Heating Degree Days 17    
Moisture  
Dew Point 34 °F    
Average Humidity 73    
Maximum Humidity 100    
Minimum Humidity 32    
Precipitation  
Precipitation 0.00 in - - ()
Sea Level Pressure  
Sea Level Pressure 29.82 in    
Wind  
Wind Speed 2 mph (WNW)    
Max Wind Speed 14 mph    
Max Gust Speed 21 mph    
Visibility 9 miles    
Events Fog    
Averages and records for this station are not official NWS values.
T = Trace of Precipitation, MM = Missing Value Source: NWS Daily Summary

Daily Weather History Graph

Daily Weather History Graph

Search for Another Location

Airport or City:

Astronomy

Nov. 01, 2012 Rise Set
Actual Time 7:39 AM EDT 6:24 PM EDT
Civil Twilight 7:13 AM EDT 6:50 PM EDT
Nautical Twilight 6:43 AM EDT 7:20 PM EDT
Astronomical Twilight 6:14 AM EDT 7:49 PM EDT
Moon 8:25 PM EDT (11/1) 10:05 AM EDT (11/1)
Length of Visible Light 11h 37m
Length of Day
10h 44m
Waning Gibbous, 93% of the Moon is Illuminated
Nov 1
Waning Gibbous
Nov 6
Last Quarter
Nov 13
New
Nov 20
First Quarter
Nov 28
Full

Hourly Weather History & Observations

Time (EDT) Temp. Windchill Dew Point Humidity Pressure Visibility Wind Dir Wind Speed Gust Speed Precip Events Conditions
12:15 AM 37.4 °F - 37.4 °F 100% 29.80 in 10.0 mi Calm Calm - N/A   Clear
12:35 AM 37.4 °F - 37.4 °F 100% 29.80 in 10.0 mi Calm Calm - N/A   Clear
12:55 AM 37.4 °F - 37.4 °F 100% 29.81 in 10.0 mi Calm Calm - N/A   Clear
1:15 AM 37.4 °F - 37.4 °F 100% 29.81 in 7.0 mi Calm Calm - N/A   Clear
1:35 AM 35.6 °F - 35.6 °F 100% 29.80 in 7.0 mi Calm Calm - N/A   Clear
1:55 AM 35.6 °F - 35.6 °F 100% 29.80 in 10.0 mi Calm Calm - N/A   Clear
2:15 AM 33.8 °F - 33.8 °F 100% 29.80 in 7.0 mi Calm Calm - N/A   Clear
2:35 AM 33.8 °F - 33.8 °F 100% 29.80 in 10.0 mi Calm Calm - N/A   Clear
2:55 AM 33.8 °F 30.8 °F 33.8 °F 100% 29.80 in 7.0 mi SW 3.5 mph - N/A   Clear
3:15 AM 33.8 °F - 33.8 °F 100% 29.80 in 7.0 mi Calm Calm - N/A   Clear
3:35 AM 33.8 °F - 33.8 °F 100% 29.80 in 10.0 mi Calm Calm - N/A   Clear
3:55 AM 33.8 °F - 33.8 °F 100% 29.80 in 7.0 mi Calm Calm - N/A   Clear
4:15 AM 33.8 °F - 33.8 °F 100% 29.80 in 2.0 mi Calm Calm - N/A   Clear
4:35 AM 33.8 °F - 33.8 °F 100% 29.80 in 4.0 mi Calm Calm - N/A   Clear
4:55 AM 32.0 °F - 32.0 °F 100% 29.80 in 3.0 mi Calm Calm - N/A   Clear
5:15 AM 32.0 °F - 32.0 °F 100% 29.80 in 0.2 mi Calm Calm - N/A Fog Fog
5:35 AM 32.0 °F - 32.0 °F 100% 29.80 in 0.8 mi Calm Calm - N/A   Mist
5:55 AM 32.0 °F - 32.0 °F 100% 29.80 in 3.0 mi Calm Calm - N/A   Clear
6:15 AM 32.0 °F - 32.0 °F 100% 29.80 in 5.0 mi Calm Calm - N/A   Clear
6:35 AM 32.0 °F - 32.0 °F 100% 29.81 in 10.0 mi Calm Calm - N/A   Clear
6:55 AM 33.8 °F - 33.8 °F 100% 29.81 in 10.0 mi Calm Calm - N/A   Clear
7:15 AM 32.0 °F - 32.0 °F 100% 29.82 in 10.0 mi Calm Calm - N/A   Clear
7:35 AM 32.0 °F - 32.0 °F 100% 29.82 in 7.0 mi Calm Calm - N/A   Clear
7:55 AM 32.0 °F - 32.0 °F 100% 29.83 in 7.0 mi Calm Calm - N/A   Clear
8:15 AM 32.0 °F - 32.0 °F 100% 29.83 in 1.2 mi Calm Calm - N/A   Mist
8:35 AM 35.6 °F - 35.6 °F 100% 29.84 in 7.0 mi Calm Calm - N/A   Clear
8:55 AM 39.2 °F 37.0 °F 39.2 °F 100% 29.84 in 10.0 mi WNW 3.5 mph - N/A   Clear
9:15 AM 42.8 °F 39.3 °F 35.6 °F 76% 29.85 in 10.0 mi West 5.8 mph - N/A   Clear
9:35 AM 44.6 °F 41.4 °F 35.6 °F 71% 29.85 in 10.0 mi West 5.8 mph - N/A   Clear
9:55 AM 46.4 °F 43.5 °F 35.6 °F 66% 29.85 in 10.0 mi WNW 5.8 mph - N/A   Clear
10:15 AM 50.0 °F - 33.8 °F 54% 29.86 in 10.0 mi West 6.9 mph - N/A   Clear
10:35 AM 51.8 °F - 33.8 °F 50% 29.86 in 10.0 mi WNW 4.6 mph - N/A   Clear
10:55 AM 53.6 °F - 35.6 °F 51% 29.86 in 10.0 mi WNW 5.8 mph - N/A   Clear
11:15 AM 55.4 °F - 35.6 °F 47% 29.85 in 10.0 mi WNW 3.5 mph - N/A   Clear
11:35 AM 55.4 °F - 33.8 °F 44% 29.85 in 10.0 mi West 8.1 mph - N/A   Clear
11:55 AM 59.0 °F - 33.8 °F 39% 29.84 in 10.0 mi NW 6.9 mph - N/A   Clear
12:15 PM 59.0 °F - 33.8 °F 39% 29.84 in 10.0 mi WNW 6.9 mph - N/A   Clear
12:35 PM 60.8 °F - 33.8 °F 36% 29.83 in 10.0 mi WNW 8.1 mph - N/A   Clear
12:55 PM 60.8 °F - 32.0 °F 34% 29.82 in 10.0 mi WNW 10.4 mph 18.4 mph N/A   Clear
1:15 PM 62.6 °F - 32.0 °F 32% 29.80 in 10.0 mi West 12.7 mph 18.4 mph N/A   Clear
1:55 PM 62.6 °F - 32.0 °F 32% 29.79 in 10.0 mi West 11.5 mph 17.3 mph N/A   Clear
2:15 PM 62.6 °F - 32.0 °F 32% 29.78 in 10.0 mi WNW 11.5 mph 19.6 mph N/A   Clear
2:35 PM 62.6 °F - 33.8 °F 34% 29.78 in 10.0 mi WNW 10.4 mph 18.4 mph N/A   Clear
2:55 PM 64.4 °F - 33.8 °F 32% 29.78 in 10.0 mi West 9.2 mph - N/A   Clear
3:15 PM 64.4 °F - 33.8 °F 32% 29.77 in 10.0 mi West 13.8 mph 17.3 mph N/A   Mostly Cloudy
3:35 PM 62.6 °F - 33.8 °F 34% 29.78 in 10.0 mi NW 9.2 mph - N/A   Mostly Cloudy
3:55 PM 62.6 °F - 33.8 °F 34% 29.79 in 10.0 mi WNW 9.2 mph 20.7 mph N/A   Scattered Clouds
4:15 PM 64.4 °F - 33.8 °F 32% 29.79 in 10.0 mi West 12.7 mph 19.6 mph N/A   Clear
4:55 PM 62.6 °F - 33.8 °F 34% 29.80 in 10.0 mi West 10.4 mph - N/A   Clear
5:15 PM 62.6 °F - 33.8 °F 34% 29.80 in 10.0 mi WNW 8.1 mph - N/A   Clear
5:55 PM 60.8 °F - 33.8 °F 36% 29.80 in 10.0 mi WNW 5.8 mph - N/A   Clear
6:15 PM 60.8 °F - 33.8 °F 36% 29.81 in 10.0 mi West 4.6 mph - N/A   Clear
6:35 PM 55.4 °F - 33.8 °F 44% 29.81 in 10.0 mi West 3.5 mph - N/A   Clear
6:55 PM 53.6 °F - 35.6 °F 51% 29.82 in 10.0 mi Calm Calm - N/A   Clear
7:15 PM 51.8 °F - 35.6 °F 54% 29.84 in 10.0 mi Calm Calm - N/A   Clear
7:35 PM 46.4 °F - 35.6 °F 66% 29.84 in 10.0 mi Calm Calm - N/A   Clear
7:55 PM 46.4 °F - 35.6 °F 66% 29.84 in 10.0 mi Calm Calm - N/A   Clear
8:15 PM 46.4 °F - 37.4 °F 71% 29.85 in 10.0 mi Calm Calm - N/A   Clear
8:35 PM 42.8 °F - 35.6 °F 76% 29.85 in 10.0 mi Calm Calm - N/A   Clear
8:55 PM 42.8 °F - 37.4 °F 81% 29.85 in 10.0 mi Calm Calm - N/A   Clear
9:15 PM 41.0 °F - 35.6 °F 81% 29.86 in 10.0 mi Calm Calm - N/A   Clear
9:35 PM 41.0 °F 38.0 °F 35.6 °F 81% 29.87 in 10.0 mi NNE 4.6 mph - N/A   Clear
9:55 PM 41.0 °F - 35.6 °F 81% 29.87 in 10.0 mi Calm Calm - N/A   Clear
10:15 PM 41.0 °F - 35.6 °F 81% 29.88 in 10.0 mi Calm Calm - N/A   Clear
10:35 PM 37.4 °F - 35.6 °F 93% 29.88 in 10.0 mi Calm Calm - N/A   Clear
10:55 PM 39.2 °F - 37.4 °F 93% 29.89 in 10.0 mi Calm Calm - N/A   Clear
11:15 PM 39.2 °F - 37.4 °F 93% 29.90 in 10.0 mi Calm Calm - N/A   Clear
11:35 PM 37.4 °F - 35.6 °F 93% 29.90 in 10.0 mi Calm Calm - N/A   Clear
11:55 PM 37.4 °F - 37.4 °F 100% 29.90 in 10.0 mi Calm Calm - N/A   Clear